{"data":{"norad_id":66480,"intl_designator":"2025-262AA","name":"STARLINK-35670","alt_names":[],"object_type":"PAYLOAD","status":"ACTIVE","operator":null,"country":"US","launch_date":"2025-11-15","launch_site_code":"AFETR","launch_vehicle":null,"mission":null,"orbit_class":"UNKNOWN","rcs_meters":null,"size_class":null,"mass_kg":null,"dimensions":null,"purposes":["comms"],"wikipedia_slug":null,"has_3d_model":false,"image_url":null,"decayed_at":null,"tle_current":{"epoch":"2026-05-24T22:08:03.496416Z","epoch_age_seconds":78454,"freshness":"FRESH","line1":"1 66480U 25262AA  26144.92226269  .00010916  00000+0  40557-3 0  9996","line2":"2 66480  43.0000 225.7750 0001115 277.0859  82.9866 15.27583480 30563","mean_motion":15.2758348,"eccentricity":0.0001115,"inclination_deg":43,"raan_deg":225.775,"arg_perigee_deg":277.0859,"mean_anomaly_deg":82.9866,"bstar":0.00040557,"rev_number":3056,"period_min":94.266533963826,"perigee_km":482.27365459967,"apogee_km":483.80369677535,"semimajor_km":6861.1756756875,"source":"CELESTRAK","updated_at":"2026-05-25T13:38:21.240283Z"}}}